Home   Weather   St. Louis   Past weeks
Flag for USA

Past Weather in St. Louis, Missouri, USA — November 2018

Now
73 °F

Passing clouds.


Feels Like: 71 °F
Forecast: 81 / 69 °F
Wind: No wind

Location: Lambert-St. Louis International Airport

Current Time: Aug 23, 2019 at 12:10:06 am

Latest Report: Aug 22, 2019 at 10:51 pm


Visibility: 10 mi

Pressure: 29.98 "Hg

Humidity: 90%

Dew Point: 70 °F

Location of St. LouisLocation

November 2018 Weather in St. Louis — Graph

°F

High & Low Weather Summary for November 2018

 TemperatureHumidityPressure
High63 °F (Nov 24, 2:51 pm)100% (Nov 1, 8:51 pm)30.62 "Hg (Nov 1, 8:51 pm)
Low18 °F (Nov 14, 4:51 am)31% (Nov 22, 1:51 pm)29.35 "Hg (Nov 25, 4:16 pm)
Average39 °F81%30.09 "Hg
* Reported Nov 1 12:51 am — Nov 30 11:51 pm, St. Louis. Weather by CustomWeather, © 2019

Note: Actual official high and low records may vary slightly from our data, if they occured in-between our weather recording intervals... More about our weather records

Advertising

St. Louis Weather History for November 1, 2018

Scroll right to see more
 ConditionsComfort  
Time TempWeatherWind HumidityBarometerVisibility
12:51 am
Thu, Nov 1
48 °FLight rain. Mostly cloudy.12 mph89%29.87 "Hg9 mi
1:51 am48 °FLight rain. Overcast.8 mph89%29.86 "Hg9 mi
2:51 am48 °FLight rain. Mostly cloudy.14 mph93%29.81 "Hg7 mi
3:51 am48 °FRain. Mostly cloudy.10 mph93%29.80 "Hg7 mi
4:17 am48 °FRain. Fog.9 mph93%29.79 "Hg6 mi
4:37 am48 °FRain. Fog.9 mph93%29.80 "Hg6 mi
4:51 am48 °FRain. Fog.7 mph93%29.80 "Hg6 mi
5:51 am47 °FRain. Fog.9 mph97%29.80 "Hg6 mi
6:27 am47 °FLight rain. Mostly cloudy.9 mph93%29.79 "Hg9 mi
6:51 am47 °FLight rain. Mostly cloudy.9 mph97%29.82 "Hg10 mi
7:35 am47 °FLight rain. Fog.6 mph97%29.78 "Hg6 mi
7:51 am47 °FLight rain. Mostly cloudy.12 mph97%29.80 "Hg8 mi
8:51 am47 °FLight rain. Mostly cloudy.12 mph90%29.79 "Hg10 mi
9:51 am47 °FLight rain. Mostly cloudy.16 mph86%29.78 "Hg10 mi
10:51 am48 °FLight rain. Mostly cloudy.16 mph86%29.76 "Hg10 mi
11:51 am47 °FLight rain. Mostly cloudy.13 mph93%29.77 "Hg7 mi
12:51 pm47 °FLight rain. Fog.13 mph90%29.77 "Hg5 mi
1:51 pm46 °FLight rain. Fog.13 mph93%29.78 "Hg6 mi
2:08 pm46 °FLight rain. More clouds than sun.12 mph93%29.77 "Hg8 mi
2:35 pm46 °FLight rain. More clouds than sun.15 mph89%29.76 "Hg10 mi
2:51 pm46 °FLight rain. More clouds than sun.14 mph89%29.76 "Hg10 mi
3:51 pm46 °FRain. Mostly cloudy.9 mph89%29.78 "Hg7 mi
4:51 pm45 °FLight rain. Overcast.10 mph90%29.81 "Hg7 mi
5:51 pm45 °FLight rain. More clouds than sun.7 mph93%29.83 "Hg8 mi
6:51 pm45 °FLight rain. Mostly cloudy.No wind97%29.85 "Hg9 mi
7:51 pm45 °FLight rain. Passing clouds.3 mph97%29.85 "Hg9 mi
8:51 pm44 °FPartly cloudy.3 mph100%29.86 "Hg9 mi
9:51 pm45 °FOvercast.6 mph100%29.88 "Hg8 mi
10:51 pm45 °FMostly cloudy.6 mph97%29.89 "Hg8 mi
11:51 pm45 °FOvercast.7 mph97%29.87 "Hg10 mi
Weather by CustomWeather, © 2019

See weather overview